GW1050 Weather Reports


time (UTC)temp
F
wind
direction
speed
knots
gust
knots
rain 1hr
in
rain 24hr
in
rain mn
in
humidity
%
barometer
mb
20260507231727 59 198 1.7 7.8 0.00 0.00 0.00 44 1014.9
20260507231224 59 147 4.3 10.4 0.00 0.00 0.00 44 1015.2
20260507230721 59 302 3.5 7.8 0.00 0.00 0.00 43 1015.0
20260507230219 60 359 6.1 10.4 0.00 0.00 0.00 42 1014.9
20260507225717 60 241 0.9 7.8 0.00 0.00 0.00 43 1014.8
20260507225214 60 153 2.6 6.1 0.00 0.00 0.00 42 1014.8
20260507224710 60 351 3.5 7.8 0.00 0.00 0.00 42 1014.8
20260507224207 61 7 4.3 7.8 0.00 0.00 0.00 41 1014.7
20260507223703 60 164 2.6 6.1 0.00 0.00 0.00 41 1014.7
20260507223200 60 354 6.1 10.4 0.00 0.00 0.00 41 1014.6
20260507222657 60 199 7.0 12.2 0.00 0.00 0.00 41 1014.4
20260507222153 60 190 4.3 6.1 0.00 0.00 0.00 40 1014.8
20260507221650 62 176 6.1 12.2 0.00 0.00 0.00 40 1014.5
20260507221146 63 326 3.5 10.4 0.00 0.00 0.00 39 1014.4
20260507220643 62 213 3.5 10.4 0.00 0.00 0.00 39 1014.2
20260507220141 61 169 1.7 6.1 0.00 0.00 0.00 39 1014.4
20260507215637 61 248 4.3 6.1 0.00 0.00 0.00 40 1014.2
20260507215135 61 323 4.3 7.8 0.00 0.00 0.00 41 1014.0
20260507214632 62 202 3.5 12.2 0.00 0.00 0.00 39 1014.2
20260507214128 61 226 2.6 12.2 0.00 0.00 0.00 40 1014.2
20260507213624 61 329 5.2 12.2 0.00 0.00 0.00 40 1014.0
20260507213122 62 300 11.3 15.6 0.00 0.00 0.00 39 1014.1
20260507212617 62 141 7.8 13.9 0.00 0.00 0.00 39 1014.0
20260507212114 61 171 1.7 6.1 0.00 0.00 0.00 40 1014.2
20260507211611 61 306 5.2 10.4 0.00 0.00 0.00 41 1014.1
20260507211107 61 278 7.0 10.4 0.00 0.00 0.00 41 1014.0
20260507210605 62 302 2.6 6.1 0.00 0.00 0.00 42 1014.1
20260507205558 62 275 4.3 6.1 0.00 0.00 0.00 40 1014.0
20260507205054 61 324 7.0 15.6 0.00 0.00 0.00 41 1013.9
20260507204550 61 244 3.5 7.8 0.00 0.00 0.00 41 1013.9
20260507204048 61 178 4.3 7.8 0.00 0.00 0.00 40 1014.0
20260507203546 62 245 3.5 6.1 0.00 0.00 0.00 40 1014.0
20260507203043 62 243 2.6 7.8 0.00 0.00 0.00 41 1013.7
20260507202538 62 317 5.2 7.8 0.00 0.00 0.00 41 1013.8
20260507202035 62 219 6.1 10.4 0.00 0.00 0.00 40 1014.0
20260507201531 62 157 1.7 4.3 0.00 0.00 0.00 39 1014.0
20260507201027 63 258 5.2 12.2 0.00 0.00 0.00 41 1013.8
20260507200522 64 184 1.7 10.4 0.00 0.00 0.00 38 1014.2
20260507200019 65 305 7.8 13.9 0.00 0.00 0.00 39 1014.1
20260507195516 64 157 5.2 7.8 0.00 0.00 0.00 39 1014.2
20260507195014 63 309 6.1 15.6 0.00 0.00 0.00 40 1014.5
20260507194510 64 282 8.7 20.0 0.00 0.00 0.00 40 1014.6
20260507194006 66 270 4.3 10.4 0.00 0.00 0.00 39 1014.4
20260507193503 63 323 6.1 12.2 0.00 0.00 0.00 44 1014.5
20260507193000 62 149 4.3 6.1 0.00 0.00 0.00 42 1014.7
20260507192456 63 172 2.6 10.4 0.00 0.00 0.00 43 1014.5
20260507191953 63 213 3.5 6.1 0.00 0.00 0.00 45 1014.6
20260507191449 63 144 2.6 7.8 0.00 0.00 0.00 45 1014.5
20260507190946 63 264 5.2 10.4 0.00 0.00 0.00 44 1014.7
20260507190443 63 187 0.9 10.4 0.00 0.00 0.00 44 1014.6
20260507185942 63 253 4.3 7.8 0.00 0.00 0.00 43 1014.5
20260507185439 63 219 4.3 10.4 0.00 0.00 0.00 43 1014.6
20260507184936 63 341 7.0 7.8 0.00 0.00 0.00 44 1014.5
20260507184434 61 114 3.5 7.8 0.00 0.00 0.00 43 1014.8
20260507183931 61 226 5.2 10.4 0.00 0.00 0.00 43 1015.0
20260507183428 62 325 7.8 10.4 0.00 0.00 0.00 46 1014.8
20260507182925 61 186 2.6 15.6 0.00 0.00 0.00 46 1015.0
20260507182421 61 126 3.5 4.3 0.00 0.00 0.00 48 1014.9
20260507181917 61 168 1.7 7.8 0.00 0.00 0.00 47 1015.0
20260507181413 61 177 4.3 6.1 0.00 0.00 0.00 48 1014.9
20260507180910 61 262 4.3 12.2 0.00 0.00 0.00 47 1015.0
20260507180407 62 154 1.7 6.1 0.00 0.00 0.00 49 1015.0
20260507175903 60 276 5.2 7.8 0.00 0.00 0.00 49 1015.1
20260507175400 61 313 5.2 6.1 0.00 0.00 0.00 47 1015.1
20260507174857 60 184 1.7 10.4 0.00 0.00 0.00 48 1015.3
20260507174354 60 188 5.2 10.4 0.00 0.00 0.00 47 1015.2
20260507173852 61 280 7.0 7.8 0.00 0.00 0.00 46 1015.5
20260507173349 60 294 2.6 6.1 0.00 0.00 0.00 50 1015.4
20260507172845 60 141 4.3 10.4 0.00 0.00 0.00 46 1015.5
20260507172342 60 296 4.3 10.4 0.00 0.00 0.00 47 1015.6
20260507171838 60 209 3.5 15.6 0.00 0.00 0.00 47 1015.4
20260507171335 61 216 4.3 13.9 0.00 0.00 0.00 46 1015.7
20260507170832 60 174 2.6 6.1 0.00 0.00 0.00 44 1015.6
20260507170329 59 136 4.3 10.4 0.00 0.00 0.00 46 1015.8
20260507165824 60 221 2.6 13.9 0.00 0.00 0.00 47 1015.7
20260507165320 60 162 7.0 10.4 0.00 0.00 0.00 46 1016.0
20260507164817 61 246 3.5 15.6 0.00 0.00 0.00 46 1015.7
20260507164314 60 191 1.7 6.1 0.00 0.00 0.00 45 1016.1
20260507163811 61 163 1.7 10.4 0.00 0.00 0.00 45 1015.9
20260507163309 60 263 3.5 10.4 0.00 0.00 0.00 49 1015.9
20260507162804 60 276 7.8 12.2 0.00 0.00 0.00 49 1016.1
20260507162300 61 172 3.5 10.4 0.00 0.00 0.00 47 1016.0
20260507161758 60 267 0.9 7.8 0.00 0.00 0.00 47 1016.2
20260507161254 60 204 5.2 7.8 0.00 0.00 0.00 45 1016.2
20260507160750 60 176 1.7 7.8 0.00 0.00 0.00 49 1016.1
20260507160247 59 173 2.6 6.1 0.00 0.00 0.00 49 1016.2
20260507155743 57 194 1.7 7.8 0.00 0.00 0.00 48 1016.4
20260507155239 58 286 7.0 10.4 0.00 0.00 0.00 49 1016.4
20260507154735 59 275 3.5 6.1 0.00 0.00 0.00 49 1016.4
20260507154233 58 112 3.5 6.1 0.00 0.00 0.00 49 1016.4
20260507153729 59 179 4.3 6.1 0.00 0.00 0.00 49 1016.6
20260507153226 58 317 6.1 7.8 0.00 0.00 0.00 48 1016.4
20260507152722 57 161 1.7 10.4 0.00 0.00 0.00 49 1016.5
20260507152219 57 168 1.7 10.4 0.00 0.00 0.00 50 1016.4
20260507151715 59 163 0.0 7.8 0.00 0.00 0.00 48 1016.4
20260507151211 60 223 1.7 4.3 0.00 0.00 0.00 45 1016.5
20260507150708 59 219 6.1 10.4 0.00 0.00 0.00 48 1016.9
20260507150205 57 186 3.5 6.1 0.00 0.00 0.00 51 1016.9
20260507145701 56 298 7.8 12.2 0.00 0.00 0.00 51 1016.8
20260507145158 56 254 2.6 4.3 0.00 0.00 0.00 50 1017.0
20260507144654 56 155 3.5 12.2 0.00 0.00 0.00 49 1017.0
20260507144153 57 201 4.3 7.8 0.00 0.00 0.00 52 1017.2
20260507143649 57 145 2.6 4.3 0.00 0.00 0.00 51 1017.1
20260507143146 56 162 0.0 1.7 0.00 0.00 0.00 56 1017.2
20260507142642 57 284 0.9 7.8 0.00 0.00 0.00 51 1017.4
20260507142139 57 161 0.9 6.1 0.00 0.00 0.00 52 1017.2
20260507141635 56 12 2.6 6.1 0.00 0.00 0.00 52 1017.4
20260507141132 56 161 2.6 6.1 0.00 0.00 0.00 56 1017.5
20260507140628 56 184 1.7 4.3 0.00 0.00 0.00 57 1017.6
20260507140126 57 251 5.2 6.1 0.00 0.00 0.00 57 1017.5
20260507135623 56 162 0.9 7.8 0.00 0.00 0.00 58 1017.8
20260507135120 57 158 0.9 4.3 0.00 0.00 0.00 57 1017.8
20260507134616 56 207 0.9 1.7 0.00 0.00 0.00 58 1017.8
20260507134113 56 161 1.7 4.3 0.00 0.00 0.00 60 1017.8
20260507133609 56 200 3.5 6.1 0.00 0.00 0.00 61 1017.6
20260507133106 56 218 2.6 6.1 0.00 0.00 0.00 60 1017.9
20260507132603 56 161 0.9 4.3 0.00 0.00 0.00 60 1017.9
20260507132059 56 153 0.0 1.7 0.00 0.00 0.00 65 1018.0
20260507131556 55 163 0.0 1.7 0.00 0.00 0.00 67 1017.9
20260507131054 55 171 0.9 1.7 0.00 0.00 0.00 68 1017.9
20260507130550 54 163 0.9 1.7 0.00 0.00 0.00 67 1017.9
20260507130049 53 163 0.9 1.7 0.00 0.00 0.00 73 1017.9
20260507125547 52 153 0.0 4.3 0.00 0.00 0.00 75 1018.1
20260507125044 52 171 0.0 1.7 0.00 0.00 0.00 78 1017.9
20260507124540 51 155 0.0 1.7 0.00 0.00 0.00 79 1018.0
20260507124038 51 149 1.7 1.7 0.00 0.00 0.00 79 1018.3
20260507123536 50 154 0.0 1.7 0.00 0.00 0.00 82 1018.0
20260507123033 50 148 0.0 1.7 0.00 0.00 0.00 82 1018.2
20260507122528 49 157 0.9 1.7 0.00 0.00 0.00 83 1018.3
20260507122024 48 155 0.0 0.0 0.00 0.00 0.00 87 1018.2
20260507121520 47 161 0.0 0.0 0.00 0.00 0.00 89 1018.1
20260507121016 46 155 0.0 0.0 0.00 0.00 0.00 92 1018.1
20260507120512 45 148 0.0 0.0 0.00 0.00 0.00 95 1018.1
20260507120009 44 164 0.0 0.0 0.00 0.00 0.00 96 1018.1
20260507115505 43 156 0.0 0.0 0.00 0.00 0.00 97 1018.1
20260507115001 41 159 0.0 0.0 0.00 0.00 0.00 97 1018.0
20260507114457 40 157 0.0 0.0 0.00 0.00 0.00 97 1018.1
20260507113955 40 155 0.0 1.7 0.00 0.00 0.00 97 1018.1
20260507113452 40 152 0.0 1.7 0.00 0.00 0.00 97 1018.1
20260507112949 40 159 0.0 0.0 0.00 0.00 0.00 97 1017.9
20260507112446 39 150 0.0 1.7 0.00 0.00 0.00 97 1018.0
20260507111943 39 153 0.0 0.0 0.00 0.00 0.00 97 1018.0
20260507111441 39 155 0.0 0.0 0.00 0.00 0.00 97 1017.9
20260507110937 39 160 0.0 0.0 0.00 0.00 0.00 97 1017.8
20260507110433 39 163 0.0 0.0 0.00 0.00 0.00 97 1017.8
20260507105929 39 156 0.0 0.0 0.00 0.00 0.00 96 1017.8
20260507105427 39 152 0.0 0.0 0.00 0.00 0.00 96 1017.7
20260507104923 38 162 0.0 0.0 0.00 0.00 0.00 96 1017.8
20260507104420 38 152 0.0 0.0 0.00 0.00 0.00 96 1017.8
20260507103915 38 157 0.0 0.0 0.00 0.00 0.00 96 1017.5
20260507103413 38 160 0.0 0.0 0.00 0.00 0.00 96 1017.6
20260507102909 38 164 0.0 0.0 0.00 0.00 0.00 96 1017.4
20260507102406 38 161 0.0 0.0 0.00 0.00 0.00 96 1017.2
20260507101902 38 161 0.0 0.0 0.00 0.00 0.00 96 1017.6
20260507101402 38 159 0.0 0.0 0.00 0.00 0.00 95 1017.5
20260507100859 38 183 0.0 0.0 0.00 0.00 0.00 95 1017.4
20260507100357 38 163 0.0 0.0 0.00 0.00 0.00 95 1017.4
20260507095855 38 157 0.0 0.0 0.00 0.00 0.00 95 1017.3
20260507095351 38 157 0.0 0.0 0.00 0.00 0.00 95 1017.5
20260507094849 38 164 0.0 0.0 0.00 0.00 0.00 95 1017.3
20260507094345 39 161 0.0 0.0 0.00 0.00 0.00 94 1017.3
20260507093842 39 183 0.0 0.0 0.00 0.00 0.00 94 1017.4
20260507093340 39 151 0.0 1.7 0.00 0.00 0.00 94 1017.2
20260507092838 39 159 0.0 0.0 0.00 0.00 0.00 94 1017.2
20260507092334 39 162 0.0 0.0 0.00 0.00 0.00 94 1017.4
20260507091831 39 150 0.9 1.7 0.00 0.00 0.00 94 1017.3
20260507091327 39 151 0.0 1.7 0.00 0.00 0.00 93 1017.4
20260507090823 39 153 0.9 1.7 0.00 0.00 0.00 93 1017.6
20260507090319 39 159 0.0 0.0 0.00 0.00 0.00 93 1017.5
20260507085816 40 159 0.0 1.7 0.00 0.00 0.00 93 1017.3
20260507085313 40 161 0.0 1.7 0.00 0.00 0.00 92 1017.4
20260507084811 40 159 0.9 1.7 0.00 0.00 0.00 92 1017.4
20260507084307 40 162 0.0 0.0 0.00 0.00 0.00 92 1017.5
20260507083804 40 157 0.0 0.0 0.00 0.00 0.00 92 1017.4
20260507083301 40 146 1.7 1.7 0.00 0.00 0.00 92 1017.3
20260507082757 40 162 0.0 1.7 0.00 0.00 0.00 92 1017.3
20260507082253 41 163 0.0 0.0 0.00 0.00 0.00 92 1017.5
20260507081750 41 162 0.0 1.7 0.00 0.00 0.00 91 1017.5
20260507081246 41 163 0.9 1.7 0.00 0.00 0.00 91 1017.5
20260507080743 41 133 0.0 1.7 0.00 0.00 0.00 91 1017.4
20260507080239 41 160 0.0 0.0 0.00 0.00 0.00 91 1017.5
20260507075734 41 152 0.0 0.0 0.00 0.00 0.00 91 1017.4
20260507075231 41 183 0.0 0.0 0.00 0.00 0.00 91 1017.4
20260507074727 41 153 0.0 0.0 0.00 0.00 0.00 91 1017.3
20260507074226 41 157 0.0 0.0 0.00 0.00 0.00 90 1017.4
20260507073722 41 156 0.0 0.0 0.00 0.00 0.00 90 1017.4
20260507073218 42 161 0.0 0.0 0.00 0.00 0.00 89 1017.5
20260507072716 42 149 1.7 1.7 0.00 0.00 0.00 89 1017.5
20260507072213 42 166 0.0 1.7 0.00 0.00 0.00 88 1017.5
20260507071711 43 157 1.7 1.7 0.00 0.00 0.00 89 1017.4
20260507071207 43 157 0.9 1.7 0.00 0.00 0.00 88 1017.4
20260507070704 43 149 0.9 1.7 0.00 0.00 0.00 87 1017.4
20260507070201 43 154 0.0 1.7 0.00 0.00 0.00 87 1017.2
20260507065657 44 155 0.0 1.7 0.00 0.00 0.00 87 1017.5
20260507065154 44 143 0.0 1.7 0.00 0.00 0.00 86 1017.4
20260507064652 45 151 0.9 1.7 0.00 0.00 0.00 86 1017.4
20260507064150 45 155 1.7 1.7 0.00 0.00 0.00 85 1017.3
20260507063647 45 147 1.7 1.7 0.00 0.00 0.00 85 1017.4
20260507063144 46 145 1.7 1.7 0.00 0.00 0.00 84 1017.4
20260507062641 46 155 0.0 1.7 0.00 0.00 0.00 83 1017.4
20260507062139 47 155 1.7 1.7 0.00 0.00 0.00 82 1017.3
20260507061636 47 143 0.9 1.7 0.00 0.00 0.00 81 1017.4
20260507061134 47 157 0.0 1.7 0.00 0.00 0.00 81 1017.5
20260507060632 47 151 0.0 1.7 0.00 0.00 0.00 80 1017.6
20260507060128 48 158 0.0 1.7 0.00 0.00 0.00 80 1017.5
20260507055624 48 150 1.7 1.7 0.00 0.00 0.00 80 1017.7
20260507055120 48 149 0.9 4.3 0.00 0.00 0.00 79 1017.6
20260507054616 48 127 2.6 4.3 0.00 0.00 0.00 76 1017.8
20260507054113 48 158 0.9 1.7 0.00 0.00 0.00 79 1018.1
20260507053611 49 148 0.9 1.7 0.00 0.00 0.00 80 1018.1
20260507053109 48 154 0.0 1.7 0.00 0.00 0.00 78 1018.0
20260507052607 48 147 1.7 1.7 0.00 0.00 0.00 80 1018.3
20260507052103 48 161 0.0 1.7 0.00 0.00 0.00 81 1017.8
20260507051601 48 147 1.7 1.7 0.00 0.00 0.00 81 1018.1
20260507051057 48 148 0.9 1.7 0.00 0.00 0.00 82 1018.0
20260507050554 48 152 1.7 1.7 0.00 0.00 0.00 82 1018.0
20260507050050 48 131 2.6 4.3 0.00 0.00 0.00 81 1017.9
20260507045547 48 183 0.9 1.7 0.00 0.00 0.00 81 1017.9
20260507045045 48 145 1.7 1.7 0.00 0.00 0.00 82 1018.1
20260507044541 48 161 0.0 1.7 0.00 0.00 0.00 82 1018.0
20260507044038 48 162 0.0 1.7 0.00 0.00 0.00 82 1018.1
20260507043534 48 133 0.0 1.7 0.00 0.00 0.00 82 1017.9
20260507043032 49 153 0.0 1.7 0.00 0.00 0.00 83 1018.0
20260507042527 49 137 1.7 1.7 0.00 0.00 0.00 82 1017.8
20260507042023 49 154 0.0 1.7 0.00 0.00 0.00 83 1017.8
20260507041520 49 144 0.9 1.7 0.00 0.00 0.00 82 1018.0
20260507041017 49 160 0.9 1.7 0.00 0.00 0.00 82 1017.9
20260507040513 49 139 0.0 4.3 0.00 0.00 0.00 83 1018.0
20260507040009 49 145 1.7 1.7 0.00 0.74 0.74 82 1017.9
20260507035506 49 152 0.9 1.7 0.00 0.74 0.74 83 1017.8
20260507035002 49 157 0.9 1.7 0.00 0.74 0.74 82 1017.8
20260507034459 49 164 0.0 1.7 0.00 0.74 0.74 82 1017.8
20260507033957 49 153 1.7 1.7 0.00 0.74 0.74 83 1017.7
20260507033454 49 147 0.0 1.7 0.00 0.74 0.74 83 1018.0
20260507032952 49 138 0.9 1.7 0.00 0.74 0.74 82 1017.9
20260507032448 49 157 0.9 1.7 0.00 0.74 0.74 82 1017.9
20260507031945 49 153 1.7 1.7 0.00 0.74 0.74 81 1017.8
20260507031441 50 145 1.7 1.7 0.00 0.74 0.74 82 1017.7
20260507030938 50 162 0.0 0.0 0.00 0.74 0.74 81 1017.4
20260507030435 50 146 1.7 1.7 0.00 0.74 0.74 81 1017.4
20260507025932 50 152 1.7 1.7 0.00 0.74 0.74 80 1017.3
20260507025430 50 162 0.0 1.7 0.00 0.74 0.74 79 1017.4
20260507024927 50 154 0.9 4.3 0.00 0.74 0.74 78 1017.3
20260507024424 50 152 0.9 1.7 0.00 0.74 0.74 78 1017.2
20260507023920 51 154 0.0 0.0 0.00 0.74 0.74 76 1017.5
20260507023417 51 140 1.7 1.7 0.00 0.74 0.74 75 1017.3
20260507022914 51 150 0.9 4.3 0.00 0.74 0.74 73 1017.2
20260507022411 51 180 0.0 1.7 0.00 0.74 0.74 71 1017.2
20260507021907 51 142 0.9 1.7 0.00 0.74 0.74 77 1017.1
20260507021402 51 155 0.0 1.7 0.00 0.74 0.74 74 1017.3
20260507020900 52 137 1.7 1.7 0.00 0.74 0.74 74 1017.1
20260507020356 52 159 0.9 1.7 0.00 0.74 0.74 72 1017.1
20260507015854 52 153 1.7 4.3 0.00 0.74 0.74 72 1017.1
20260507015352 52 151 0.9 4.3 0.00 0.74 0.74 70 1017.1
20260507014848 52 156 0.0 1.7 0.00 0.74 0.74 76 1016.9
20260507014344 52 147 0.9 4.3 0.00 0.74 0.74 71 1016.7
20260507013841 52 162 0.0 1.7 0.00 0.74 0.74 77 1016.7
20260507013338 53 142 0.9 1.7 0.00 0.74 0.74 72 1016.7
20260507012836 53 148 0.9 4.3 0.00 0.74 0.74 67 1016.4
20260507012331 53 138 1.7 1.7 0.00 0.74 0.74 66 1016.5
20260507011829 53 151 3.5 4.3 0.00 0.74 0.74 66 1016.5
20260507011326 53 116 4.3 6.1 0.00 0.74 0.74 66 1016.5
20260507010825 53 89 5.2 10.4 0.00 0.74 0.74 69 1016.1
20260507010321 54 50 5.2 7.8 0.00 0.74 0.74 65 1016.3
20260507005819 53 161 1.7 7.8 0.00 0.74 0.74 66 1016.7
20260507005316 54 163 2.6 10.4 0.00 0.74 0.74 64 1016.7
20260507004812 54 143 4.3 7.8 0.00 0.74 0.74 65 1016.6
20260507004310 54 155 2.6 6.1 0.00 0.74 0.74 67 1016.6
20260507003806 54 139 2.6 7.8 0.00 0.74 0.74 74 1016.8
20260507003301 52 168 2.6 4.3 0.00 0.74 0.74 80 1016.8
20260507002757 52 155 1.7 1.7 0.00 0.74 0.74 85 1016.6
20260507002253 52 157 0.9 4.3 0.00 0.74 0.74 85 1016.7
20260507001751 53 128 1.7 1.7 0.00 0.74 0.74 86 1016.9
20260507001248 53 155 0.0 1.7 0.00 0.74 0.74 86 1017.0
20260507000744 53 159 0.0 0.0 0.00 0.74 0.74 85 1016.9
20260507000240 53 159 2.6 4.3 0.00 0.74 0.74 83 1016.5
20260506235737 54 163 0.0 1.7 0.00 0.74 0.74 83 1016.4
20260506235232 55 161 0.0 1.7 0.00 0.74 0.74 81 1016.6
20260506234730 55 166 0.0 0.0 0.00 0.74 0.74 75 1016.4
20260506234227 55 90 0.0 1.7 0.00 0.74 0.74 71 1016.3
20260506233724 55 164 0.0 0.0 0.00 0.74 0.74 70 1016.3
20260506233220 55 159 0.0 1.7 0.00 0.74 0.74 70 1016.4
20260506232717 56 179 1.7 4.3 0.00 0.74 0.74 69 1016.3
20260506232212 56 165 1.7 4.3 0.00 0.74 0.74 69 1016.2